Regional Weather Roundup
Issued by NWS Little Rock, AR

Home | Current Version | Previous Version | Graphics & Text | Print | Product List | Glossary On
Versions: 1 2 3 4 5 6 7 8 9 10 11 12 13 14 15 16 17 18 19 20 21 22 23 24 25 26 27 28 29 30 31 32 33 34 35 36 37 38 39 40 41 42 43 44 45 46 47 48 49 50
000
ASUS44 KLZK 290105
RWRLZK

WEATHER ROUNDUP FOR ARKANSAS
NATIONAL WEATHER SERVICE LITTLE ROCK AR
700 PM CST SUN DEC 28 2014

NOTE: "FAIR" INDICATES FEW OR NO CLOUDS BELOW 12,000 FEET WITH NO
SIGNIFICANT WEATHER AND/OR OBSTRUCTIONS TO VISIBILITY.

ARZ001-003-010-029-290200-
NORTHWEST ARKANSAS

CITY           SKY/WX    TMP DP  RH WIND       PRES   REMARKS
FAYETTEVILLE   CLEAR     27  24  89 CALM      30.14S
FORT SMITH     CLEAR     36  26  67 SE5       30.17R
HARRISON       CLEAR     29  23  78 E5        30.15S WCI  24
BENTONVILLE    CLEAR     34  23  64 E3        30.14S
ROGERS         CLEAR     31  25  78 NE5       30.14F WCI  26
SILOAM SPGS    CLEAR     34  21  60 E3        30.15S
HIGHFILL       CLEAR     30  24  78 CALM      30.13S
SPRINGDALE     CLEAR     30  25  80 CALM      30.15F
$$

ARZ004-005-016-290200-
NORTH CENTRAL ARKANSAS

CITY           SKY/WX    TMP DP  RH WIND       PRES   REMARKS
BATESVILLE     MOCLDY    34  28  80 CALM      30.20S
FLIPPIN        CLEAR     28  23  80 CALM      30.18R
MTN HOME       CLEAR     30  25  81 SE3       30.17S
$$

ARZ040-041-290200-
WEST CENTRAL ARKANSAS

CITY           SKY/WX    TMP DP  RH WIND       PRES   REMARKS
MENA           CLEAR     32  32 100 CALM      30.15S
MOUNT IDA      PTCLDY    33  29  85 CALM      30.13F
$$

ARZ009-017-025-026-028-290200-
NORTHEAST ARKANSAS

CITY           SKY/WX    TMP DP  RH WIND       PRES   REMARKS
CORNING        CLOUDY    36  30  80 NE6       30.22F
JONESBORO      CLOUDY    37  32  82 NE5       30.21R
NEWPORT        CLOUDY    37  33  85 N6        30.22S
WALNUT RIDGE   CLOUDY    36  28  75 N6        30.20S
BLYTHEVILLE    CLOUDY    37  33  85 N9        30.20F
$$

ARZ022-023-033-042-044-290200-
CENTRAL ARKANSAS

CITY           SKY/WX    TMP DP  RH WIND       PRES   REMARKS
LITTLE ROCK    CLOUDY    40  31  70 NE5       30.20S
N LITTLE ROCK  CLOUDY    37  34  89 NE3       30.20S
JACKSONVILLE   CLOUDY    38  32  78 N5        30.20R
SEARCY         CLOUDY    37  31  78 N5        30.23R
HOT SPRINGS    CLOUDY    39  33  79 E5        30.18R
RUSSELLVILLE   PTCLDY    31  29  92 CALM      30.18S
CLINTON        FAIR      30  28  93 CALM      30.21R
$$

ARZ036-290200-
EAST ARKANSAS

CITY           SKY/WX    TMP DP  RH WIND       PRES   REMARKS
WEST MEMPHIS   CLOUDY    38  35  89 N9        30.18S
$$

ARZ050-053-066-070-073-290200-
SOUTHWEST ARKANSAS

CITY           SKY/WX    TMP DP  RH WIND       PRES   REMARKS
ARKADELPHIA    MOCLDY    40  39  96 NE3       30.20S
CAMDEN         CLOUDY    41  37  87 MISG      30.20S
TEXARKANA      CLOUDY    41  38  89 CALM      30.18R
EL DORADO      CLOUDY    42  40  92 N5        30.17S
DE QUEEN       CLOUDY    41  37  86 CALM      30.16S
$$

ARZ056-057-069-290200-
SOUTHEAST ARKANSAS

CITY           SKY/WX    TMP DP  RH WIND       PRES   REMARKS
PINE BLUFF     CLOUDY    39  34  82 N7        30.20S
STUTTGART      CLOUDY    39  34  81 N7        30.21R
MONTICELLO     LGT RAIN  40  37  89 N3        30.18R

$$




USA.gov is the U.S. government's official web portal to all federal, state and local government web resources and services.